This is the latest recevied weather packets stored in our database for station/object LU3HGB-WX. If no packets are shown the sender has not sent any weather packets the latest 10 day(s).
| Time | Temp. | Humidity | Pressure | Rain* | Wind** | Luminosity | Snow |
|---|---|---|---|---|---|---|---|
| 1788285461 | 23.33° C | 30% | 1018 hPa | 0 mm | - | 831 W/m² | - |
| 1788285161 | 23.33° C | 32% | 1018 hPa | 0 mm | - | 839 W/m² | - |
| 1788284860 | 23.33° C | 30% | 1018 hPa | 0 mm | - | 849 W/m² | - |
| 1788284575 | 23.33° C | 32% | 1018 hPa | 0 mm | - | 857 W/m² | - |
| 1788284260 | 23.33° C | 30% | 1018 hPa | 0 mm | - | 871 W/m² | - |
| 1788283967 | 23.89° C | 30% | 1018 hPa | 0 mm | - | 878 W/m² | - |
| 1788283662 | 23.89° C | 30% | 1018 hPa | 0 mm | - | 886 W/m² | - |
| 1788283360 | 23.33° C | 32% | 1018 hPa | 0 mm | - | 891 W/m² | - |
| 1788283060 | 23.33° C | 31% | 1019 hPa | 0 mm | - | 900 W/m² | - |
| 1788282763 | 23.33° C | 31% | 1019 hPa | 0 mm | - | 905 W/m² | - |
| 1788282462 | 23.33° C | 31% | 1019 hPa | 0 mm | - | 911 W/m² | - |
| 1788282160 | 22.78° C | 31% | 1019 hPa | 0 mm | - | 917 W/m² | - |
| 1788281860 | 23.33° C | 31% | 1019 hPa | 0 mm | - | 923 W/m² | - |
| 1788281560 | 22.78° C | 32% | 1019 hPa | 0 mm | - | 924 W/m² | - |
| 1788281259 | 22.78° C | 29% | 1019 hPa | 0 mm | - | 929 W/m² | - |
| 1788280960 | 22.78° C | 31% | 1019 hPa | 0 mm | - | 929 W/m² | - |
| 1788280662 | 22.78° C | 34% | 1019 hPa | 0 mm | - | 930 W/m² | - |
| 1788280359 | 22.78° C | 32% | 1019 hPa | 0 mm | - | 932 W/m² | - |
| 1788280060 | 22.78° C | 33% | 1019 hPa | 0 mm | - | 934 W/m² | - |
| 1788279760 | 22.78° C | 35% | 1020 hPa | 0 mm | - | 936 W/m² | - |
| 1788279460 | 22.22° C | 38% | 1020 hPa | 0 mm | - | 935 W/m² | - |
| 1788279160 | 22.78° C | 35% | 1020 hPa | 0 mm | - | 933 W/m² | - |
| 1788278859 | 22.78° C | 35% | 1020 hPa | 0 mm | - | 929 W/m² | - |
| 1788278560 | 22.78° C | 33% | 1020 hPa | 0 mm | - | 929 W/m² | - |
| 1788278260 | 22.78° C | 33% | 1020 hPa | 0 mm | - | 927 W/m² | - |
* Rain latest hour (hover to see other rain measurements)
** Current wind speed in m/s (hover to see current wind gust speed)